Regional Weather Roundup
Issued by NWS Wakefield, VA

Home | Current Version | Previous Version | Graphics & Text | Print | Product List | Glossary Off
Versions: 1 2 3 4 5 6 7 8 9 10 11 12 13 14 15 16 17 18 19 20 21 22 23 24 25 26 27 28

000
ASUS41 KAKQ 040615
RWRAKQ

REGIONAL WEATHER ROUNDUP
NATIONAL WEATHER SERVICE WAKEFIELD VA
100 AM EST SUN DEC 04 2016

Note: "fair" indicates few or no clouds below 12,000 feet with no
significant weather and/or obstructions to visibility. * = Denotes
station may not report precipitation (e.g., rain,snow,etc.),
thunder or fog.

VAZ042-051-052>054-056-040700-
NORTHERN VIRGINIA

CITY           SKY/WX    TMP DP  RH WIND       PRES   REMARKS
WASH NATIONAL  CLOUDY    41  28  60 W7        30.29F
DULLES         PTCLDY    37  26  64 NW10      30.28F
FORT BELVOIR   CLEAR     34  28  77 NW3       30.28F
QUANTICO       CLEAR     36  26  67 NW7       30.31F
FREDERICKSBRG* PTCLDY    35  30  82 CALM      30.29F
STAFFORD*      CLEAR     31  28  86 NW5       30.33F
WARRENTON      CLEAR     27  22  79 CALM      30.29S
CULPEPER*      CLOUDY    35  27  73 CALM      30.30F
MANASSAS*      CLEAR     36  28  75 NW6       30.29F
LEESBURG*      CLOUDY    37  32  81 W5        30.29F
WINCHESTER     CLOUDY    36  27  69 W8        30.28F
FRONT ROYAL*   FAIR      32  28  86 S5        30.29S
LURAY*         FAIR      30  30 100 CALM      30.29S
$$

VAZ048-049-060>072-079>083-040700-
CENTRAL AND SOUTH CENTRAL VIRGINIA

CITY           SKY/WX    TMP DP  RH WIND       PRES   REMARKS
RICHMOND       CLOUDY    36  27  69 NW5       30.30S
CHESTERFIELD*  FAIR      36  16  44 CALM      30.31S
PETERSBURG*    CLOUDY    35  28  75 N3        30.31S
HANOVER        PTCLDY    33  28  81 NW3       30.31S
TAPPAHANNOCK*  PTCLDY    37  25  62 CALM      30.29S
QUINTON*       FAIR      35  30  82 CALM      30.30R
CHARLOTTSVILLE CLOUDY    37  26  64 CALM      30.28F
GORDONSVILLE*  FAIR      31  29  93 CALM      30.29F
ORANGE*          N/A     36  28  75 CALM      30.31S
LOUISA*        PTCLDY    37  30  75 N3        30.28F
BUMPASS*       FAIR      37  28  71 CALM      30.29F
FARMVILLE*     CLEAR     37  32  84 NE3       30.29F
CREWE*         FAIR      36  29  76 CALM      30.29S
FORT PICKETT*  FAIR      36  26  68 NE5       30.30S
CHASE CITY*    FAIR      35  31  82 CALM      30.28F
CLARKSVILLE*   FAIR      39  30  70 CALM      30.28S
SOUTH HILL*    CLOUDY    37  31  79 N3        30.34F
LAWRENCEVILLE* FAIR      37  30  75 CALM      30.29S
EMPORIA*       CLOUDY    37  30  75 N5        30.31S
$$

VAZ088>098-040700-
SOUTHEAST VIRGINIA

CITY           SKY/WX    TMP DP  RH WIND       PRES   REMARKS
NORFOLK        PTCLDY    46  33  60 N9        30.27S
VIRGINIA BEACH CLOUDY    43  33  68 N8        30.26S
NORFOLK NAVAL  CLOUDY    43  32  65 N10       30.29S
WEST POINT*    PTCLDY    32  28  87 CALM      30.31S
SALUDA*        FAIR      41  32  71 NW8       30.29R
NEWPORT NEWS   CLEAR     39  31  72 NW5       30.29R
LANGLEY AFB    MOCLDY    41  31  69 NW6       30.28R
FORT EUSTIS    CLOUDY    42  31  66 N7        30.26S
WILLIAMSBURG*  CLEAR     39  32  75 CALM      30.30S
HR EXEC AP*    FAIR      34  27  75 CALM      30.27S
FRANKLIN*      CLOUDY    37  32  82 N5        30.31R
US460-WAKEFLD  CLOUDY    35  31  85 CALM      30.30R
$$

VAZ020-022-025-037-045-040700-
WEST CENTRAL AND SOUTHWEST VIRGINIA

CITY           SKY/WX    TMP DP  RH WIND       PRES   REMARKS
STAUNTON*      CLOUDY    29  26  88 CALM      30.29F
WAYNESBORO*    FAIR      30  26  85 CALM      30.26F
HOT SPRINGS VA CLOUDY    27  27 100 CALM      30.15F
LYNCHBURG      PTCLDY    34  28  79 NE5       30.28F
DANVILLE       MOCLDY    37  31  78 CALM      30.28F
SOUTH BOSTON*  FAIR      34  31  89 CALM      30.28F
MARTINSVILLE   PTCLDY    33  30  86 CALM      30.28F
ROANOKE        PTCLDY    37  27  67 N6        30.28F
BLACKSBURG     PTCLDY    32  28  82 CALM      30.26F
DUBLIN*        PTCLDY    34  28  80 CALM      30.24F
MARION*        CLOUDY    34  29  81 CALM      30.23F
HILLSVILLE*    CLOUDY    32  28  83 CALM      30.19F
RICHLANDS*     MOCLDY    32  27  83 CALM      30.19F
WISE*          CLOUDY    34  28  80 CALM      30.20F
ABINGDON*      CLOUDY    38  30  71 E6        30.19F
$$

MDZ021>025-VAZ099-100-040700-
SOUTHERN MARYLAND AND THE DELMARVA PENINSULA

CITY           SKY/WX    TMP DP  RH WIND       PRES   REMARKS
PATUXENT RIVER PTCLDY    40  29  64 NW16      30.27F
BAY BRIDGE APT CLOUDY    43  30  61 W14       30.26S
LEONARDTOWN    CLOUDY    37  28  70 NW6       30.29S
DOVER          CLOUDY    43  34  71 W7        30.22S
GEORGETOWN     CLOUDY    42  31  64 W6        30.24F
EASTON         PTCLDY    43  31  63 NW9       30.29S
CAMBRIDGE      CLEAR     39  32  75 NW6       30.26S
SALISBURY      CLEAR     37  30  75 W6        30.25S
OCEAN CITY     PTCLDY    39  30  70 W7        30.24F
WALLOPS ISLAND PTCLDY    39  32  76 NW9       30.26S
ACCOMACK*      CLEAR     42  34  72 NW8       30.26S
$$

NCZ012>017-030>032-040700-
NORTH CENTRAL AND EASTERN NORTH CAROLINA

CITY           SKY/WX    TMP DP  RH WIND       PRES   REMARKS
ROANOKE RAPIDS FAIR      37  34  87 N5        30.29S
RALEIGH        CLOUDY    44  32  62 CALM      30.27F
ELIZABETH CITY PTCLDY    39  34  82 W5        30.28S
AHOSKIE*       CLOUDY    38  33  82 N3        30.29S
EDENTON*       PTCLDY    42  36  79 CALM      30.29S
CURRITUCK*     PTCLDY    40  33  77 CALM      30.28S
KILL DEVIL HLS PTCLDY    45  39  78 NW5       30.25S
MANTEO         PTCLDY    46  35  66 N7        30.26F
CAPE HATTERAS  MOCLDY    49  34  56 VRB6      30.26F
TARBORO*       NOT AVBL
GOLDSBORO      CLOUDY    45  35  69 NE3       30.24F
WASHINGTON     CLOUDY    41  35  81 CALM      30.28F
GREENVILLE     CLOUDY    41  37  87 CALM      30.28F
NEW BERN       CLOUDY    44  39  82 CALM      30.28F
WILMINGTON     CLOUDY    46  38  73 CALM      30.25F
$$

VAZ048-040700-
ELSEWHERE

CITY           SKY/WX    TMP DP  RH WIND       PRES   REMARKS
HARRISBURG PA  CLOUDY    43  31  62 NW8       30.23R
BALTIMORE      MOCLDY    41  30  65 W13       30.26S
ANNAPOLIS      CLOUDY    44  30  57 W6        30.26F
ANDREWS AFB    CLOUDY    39  28  63 W8        30.27S
PHILADELPHIA   CLOUDY    46  30  53 NW10      30.22R
HENDERSON NC   CLOUDY    37  30  75 CALM      30.27F
GREENSBORO     CLOUDY    42  30  62 NE7       30.24F
ROCKY MOUNT    CLOUDY    41  38  89 CALM      30.27F
$$

VAZ100-040700-
MARINE

STATION/POSITION TIME  TEMP    WIND        PRES    WAVE   SWELL
                       AIR SEA DIR/SP/G            HT/PER HT/PER
                 (UTC) (F)     (DEG/KT/KT) (MB)    (FT/S) (FT/S)
BRANDYWINE LGT   0542   44     300/ 20/ 22   N/A
CAPE MAY NJ      0548   45 47  290/ 16/ 22 1022.8S
LEWES DE         0548   43 48  280/ 12/ 14 1023.6F
OCEAN-CITY-INLET 0536   41 51  320/ 10/ 13 1024.1F
WACHAPREAGUE VA  0548   42 49  290/  1/  8 1024.7R
THOMAS POINT MD  0600   42 49  290/ 14/ 16   N/A
GOOSES REEF MD   0600   42 50  300/ 16/ 17 1025.7    2/ 3
COVE POINT MD    0548   41     320/ 12/ 19 1025.6F
SOLOMONS ISLAND  0536   41 51  310/  8/ 12   N/A
BISHOPS HEAD MD  0548   42 44  310/ 14/ 19 1025.2S
PINEY POINT MD   0548          350/ 16/ 17   N/A
POTOMAC MD       0600   43 51  340/ 14/ 17 1024.5    2/ 3
CAMBRIDGE MD     0548   44 48  300/ 14/ 18 1024.0F
LEWISETTA VA     0548   43 49  350/ 10/ 13 1025.0S
RAPPAHANNOCK LGT 0548          340/ 19/ 21 1025.2F
STINGRAY PT      0550   43     350/ 14/ 16 1025.8S
YORK RVR RNG VA  0548   43     330/ 10/ 12 1025.0R
YORKTOWN VA      0548   43 52  320/ 11/ 13 1025.2R
JAMESTOWN VA     0600   42 52  320/  6/  8   N/A     0
DOMINION TERM VA 0548   44     360/  2/  5 1025.5R
KIPTOPEKE VA     0548      51  360/  8/ 10   N/A
CHES BAY BRIDGE  0548   46 53  360/ 16/ 18 1025.0R
CAPE HENRY VA    0548   46     340/ 16/ 18   N/A
WILLOUBY STN VA  0548   44     350/ 12/ 12 1026.1R
S CRANEY ISL VA  0548   45     350/ 12/ 14 1024.9F
CAPE HENRY BUOY  0542      56                N/A     3/ 5
1ST LANDING BUOY 0600   46 52              1025.0    2/ 3
CAPE CHARLES BUO 0556      56                N/A     3/ 4
OFFSHORE WE BUOY 0551      56                N/A     4/ 5
64NM E OF VA BCH 0550   50 60  350/ 16/ 19 1023.5R   6/ 7
DUCK PIER NC     0548   47 56  320/ 10/ 12 1024.1F
44100 DUCK FRF   0535      57                N/A     5/ 6
OREGON INLET NC  0536   47 54  310/  6/  9 1024.3F
HATTERAS NC      0548   50 57  340/ 12/ 14 1024.2F
DIAMOND SHLS NC  0550   53 75  360/ 12/ 17 1024.5F   5/ 8   5/ 8
CAPE LOOKOUT NC  0500   50     350/  7/  8 1024.9F
$$




USA.gov is the U.S. government's official web portal to all federal, state and local government web resources and services.